Change the Weather History Date:

Saturday, August 16, 2014

  Actual Average Record
Temperature  
Mean Temperature 81 °F -  
Max Temperature 86 °F - - ()
Min Temperature 76 °F - - ()
Cooling Degree Days 16    
Growing Degree Days 31 (Base 50)    
Moisture  
Dew Point 73 °F    
Average Humidity 78    
Maximum Humidity 94    
Minimum Humidity 61    
Precipitation  
Precipitation 0.01 in - - ()
Sea Level Pressure  
Sea Level Pressure 29.69 in    
Wind  
Wind Speed 5 mph ()    
Max Wind Speed 9 mph    
Max Gust Speed -    
Visibility 1.6 miles    
Events      
T = Trace of Precipitation, MM = Missing Value Source: Averaged Metar Reports

Daily Weather History Graph

Daily Weather History Graph

Search for Another Location

Airport or City:

Trip Planner

Search our weather history database for the weather conditions in past years. The results will help you decide how hot, cold, wet, or windy it might be!

Date:

Astronomy

Aug. 16, 2014 Rise Set
Actual Time 5:58 AM IST 7:03 PM IST
Civil Twilight 5:34 AM IST 7:27 PM IST
Nautical Twilight 5:05 AM IST 7:56 PM IST
Astronomical Twilight 4:36 AM IST 8:25 PM IST
Moon 11:07 PM IST (8/16) 11:37 AM IST (8/16)
Length of Visible Light 13h 52m
Length of Day
13h 04m
Waning Gibbous, 63% of the Moon is Illuminated
Aug 16
Waning Gibbous
Aug 17
Last Quarter
Aug 25
New
Sep 2
First Quarter
Sep 9
Full

Hourly Weather History & Observations

Time (IST) Temp. Heat Index Dew Point Humidity Pressure Visibility Wind Dir Wind Speed Gust Speed Precip Events Conditions
12:00 AM 80.6 °F 86.2 °F 75.2 °F 84% 29.68 in 1.9 mi SW 5.8 mph - N/A   Haze
1:00 AM 78.8 °F - 73.4 °F 83% 29.65 in 1.9 mi SW 5.8 mph - N/A   Scattered Clouds
2:00 AM 78.8 °F - 73.4 °F 83% 29.65 in 1.9 mi SW 6.9 mph - N/A   Haze
2:30 AM 79 °F - 74 °F 79% 29.58 in 1 mi SW 5.8 mph - -   Haze
3:00 AM 77.0 °F - 73.4 °F 89% 29.62 in 1.9 mi WSW 6.9 mph - N/A   Haze
4:00 AM 77.0 °F - 73.4 °F 89% 29.62 in 1.9 mi WSW 9.2 mph - N/A   Haze
5:00 AM 77.0 °F - 73.4 °F 89% 29.65 in 1.9 mi WSW 8.1 mph - N/A   Haze
5:30 AM 77 °F - 73 °F 85% 29.60 in 1 mi SW 6.9 mph - -   Haze
6:00 AM 77.0 °F - 73.4 °F 89% 29.68 in 1.9 mi WSW 5.8 mph - N/A   Haze
7:00 AM 77.0 °F - 73.4 °F 89% 29.71 in 1.9 mi WSW 8.1 mph - N/A   Haze
8:00 AM 77.0 °F - 75.2 °F 94% 29.74 in 1.9 mi West 6.9 mph - N/A   Haze
8:30 AM 79 °F - 75 °F 85% 29.67 in 1 mi West 6.9 mph - -   Haze
9:00 AM 78.8 °F - 73.4 °F 83% 29.74 in 1.9 mi West 5.8 mph - N/A   Haze
10:00 AM 80.6 °F 85.4 °F 73.4 °F 79% 29.77 in 1.9 mi West 4.6 mph - N/A   Haze
11:00 AM 82.4 °F 87.2 °F 71.6 °F 70% 29.77 in 1.9 mi Variable 1.2 mph - N/A   Haze
11:30 AM 83 °F - 74 °F 68% 29.65 in 1 mi West 4.6 mph - -   Haze
12:00 PM 82.4 °F 87.2 °F 71.6 °F 70% 29.77 in 1.9 mi SW 5.8 mph - N/A   Haze
1:00 PM 80.6 °F 85.4 °F 73.4 °F 79% 29.74 in 1.9 mi South 5.8 mph - N/A   Haze
2:00 PM 82.4 °F 88.2 °F 73.4 °F 74% 29.74 in 1.9 mi West 4.6 mph - N/A   Haze
2:30 PM 85 °F - 74 °F 63% 29.64 in 1 mi WNW 6.9 mph - -   Haze
3:00 PM 82.4 °F 88.2 °F 73.4 °F 74% 29.71 in 1.9 mi WNW 5.8 mph - N/A   Haze
4:00 PM 84.2 °F 89.6 °F 71.6 °F 66% 29.71 in 1.9 mi Variable 3.5 mph - N/A   Haze
5:00 PM 86.0 °F 91.8 °F 71.6 °F 62% 29.68 in 1.9 mi Variable 2.3 mph - N/A   Haze
5:30 PM 85 °F - 74 °F 61% 29.62 in 1 mi Calm Calm - -   Haze
6:00 PM 86.0 °F 91.8 °F 71.6 °F 62% 29.71 in 1.9 mi Variable 1.2 mph - N/A   Haze
7:00 PM 82.4 °F 87.2 °F 71.6 °F 70% 29.71 in 1.9 mi Calm Calm - N/A   Haze
8:00 PM 80.6 °F 85.4 °F 73.4 °F 79% 29.71 in 1.9 mi Calm Calm - N/A   Haze
8:30 PM 80 °F - 74 °F 77% 29.65 in 1 mi Calm Calm - -   Haze
9:00 PM 80.6 °F 85.4 °F 73.4 °F 79% 29.71 in 1.6 mi Variable 3.5 mph - N/A   Scattered Clouds
10:00 PM 78.8 °F - 73.4 °F 83% 29.74 in 1.6 mi Calm Calm - N/A   Scattered Clouds
11:00 PM 78.8 °F - 73.4 °F 83% 29.74 in 1.6 mi Calm Calm - N/A   Scattered Clouds
11:30 PM 78 °F - 74 °F 84% 29.67 in 1 mi Calm Calm - -   Haze